TimePST,TemperatureF,Dew PointF,Humidity,Sea Level PressureIn,VisibilityMPH,Wind Direction,Wind SpeedMPH,Gust SpeedMPH,PrecipitationIn,Events,Conditions,WindDirDegrees,DateUTC
12:21 AM,46.4,44.6,93,30.23,2.0,Calm,Calm,-,N/A,,Clear,0,2013-02-03 08:21:00
12:43 AM,44.6,42.8,93,30.22,1.5,Calm,Calm,-,N/A,,Clear,0,2013-02-03 08:43:00
12:53 AM,45.0,43.0,93,30.22,1.5,Calm,Calm,-,N/A,,Clear,0,2013-02-03 08:53:00
1:16 AM,44.6,42.8,93,30.22,0.2,Calm,Calm,-,N/A,Fog,Fog,0,2013-02-03 09:16:00
1:53 AM,43.0,41.0,93,30.22,1.0,Calm,Calm,-,N/A,,Clear,0,2013-02-03 09:53:00
2:00 AM,41.0,39.2,93,30.21,0.2,Calm,Calm,-,N/A,Fog,Fog,0,2013-02-03 10:00:00
2:10 AM,39.2,39.2,100,30.22,0.2,Calm,Calm,-,N/A,Fog,Fog,0,2013-02-03 10:10:00
2:53 AM,39.9,39.0,97,30.21,0.2,Calm,Calm,-,N/A,Fog,Fog,0,2013-02-03 10:53:00
3:53 AM,37.9,37.0,97,30.20,0.2,Calm,Calm,-,N/A,Fog,Fog,0,2013-02-03 11:53:00
4:53 AM,39.9,39.9,100,30.20,0.2,Calm,Calm,-,N/A,Fog,Fog,0,2013-02-03 12:53:00
5:53 AM,37.9,37.0,97,30.19,0.2,Calm,Calm,-,N/A,Fog,Fog,0,2013-02-03 13:53:00
6:53 AM,39.0,37.9,96,30.20,0.2,Calm,Calm,-,N/A,Fog,Fog,0,2013-02-03 14:53:00
7:53 AM,42.1,39.9,92,30.22,0.2,NNW,5.8,-,N/A,Fog,Fog,330,2013-02-03 15:53:00
8:53 AM,43.0,42.1,97,30.24,0.2,WNW,6.9,-,N/A,Fog,Fog,300,2013-02-03 16:53:00
9:53 AM,46.0,46.0,100,30.22,1.8,NW,5.8,-,N/A,,Mostly Cloudy,320,2013-02-03 17:53:00
10:01 AM,46.4,46.4,100,30.22,2.5,NW,5.8,-,N/A,,Mostly Cloudy,320,2013-02-03 18:01:00
10:10 AM,48.2,48.2,100,30.22,4.0,NNW,6.9,-,N/A,,Partly Cloudy,330,2013-02-03 18:10:00
10:53 AM,53.1,48.0,83,30.22,9.0,Variable,5.8,-,N/A,,Clear,0,2013-02-03 18:53:00
11:53 AM,57.0,46.0,67,30.21,10.0,NNW,6.9,-,N/A,,Clear,340,2013-02-03 19:53:00
12:53 PM,59.0,46.0,62,30.17,10.0,NW,6.9,-,N/A,,Clear,320,2013-02-03 20:53:00
1:53 PM,60.1,46.0,60,30.14,10.0,Calm,Calm,-,N/A,,Clear,0,2013-02-03 21:53:00
2:53 PM,62.1,45.0,53,30.13,10.0,West,3.5,-,N/A,,Clear,280,2013-02-03 22:53:00
3:53 PM,62.1,46.9,58,30.13,10.0,NW,5.8,-,N/A,,Clear,320,2013-02-03 23:53:00
4:53 PM,59.0,46.0,62,30.13,10.0,NW,6.9,-,N/A,,Clear,320,2013-02-04 00:53:00
5:53 PM,55.0,44.1,67,30.13,10.0,Calm,Calm,-,N/A,,Clear,0,2013-02-04 01:53:00
6:53 PM,52.0,43.0,71,30.14,10.0,Calm,Calm,-,N/A,,Clear,0,2013-02-04 02:53:00
7:53 PM,46.0,41.0,83,30.14,7.0,WNW,5.8,-,N/A,,Clear,290,2013-02-04 03:53:00
8:53 PM,48.0,44.1,86,30.16,6.0,North,3.5,-,N/A,,Clear,360,2013-02-04 04:53:00
9:53 PM,44.1,42.1,93,30.16,4.0,Calm,Calm,-,N/A,,Clear,0,2013-02-04 05:53:00
10:33 PM,42.8,41.0,93,30.16,2.5,South,3.5,-,N/A,,Clear,190,2013-02-04 06:33:00
10:53 PM,42.1,39.9,92,30.16,2.0,SW,4.6,-,N/A,,Clear,230,2013-02-04 06:53:00
11:17 PM,42.8,39.2,87,30.16,1.5,West,3.5,-,N/A,,Clear,270,2013-02-04 07:17:00
11:38 PM,42.8,41.0,93,30.16,3.0,Calm,Calm,-,N/A,,Clear,0,2013-02-04 07:38:00
11:47 PM,42.8,39.2,87,30.16,1.8,Calm,Calm,-,N/A,,Clear,0,2013-02-04 07:47:00
11:53 PM,42.1,39.9,92,30.16,2.0,NW,3.5,-,N/A,,Clear,320,2013-02-04 07:53:00